Flag for Austria Weather past 2 weeks in Amstetten, Lower Austria, Austria

Now
51 °F

Light rain. Overcast.


Feels Like: 48 °F
Forecast: 40 / 50 °F
Wind: 6 mph from Northwest

Location: Linz / Hoersching-Flughafen

Current Time: Oct 23, 2014 at 2:51:47 PM

Latest Report: Oct 23, 2014 at 2:00 PM


Visibility: 9 mi

Pressure: 30.01 "Hg

Humidity: 88%

Dew point: 47 °F

Location of AmstettenLocation

Historic Weather in Amstetten — Graph

°F

Amstetten temperature yesterday

Maximum temperature yesterday: 49 °F (at 12:00 AM)
Minimum temperature yesterday: 41 °F (at 11:00 PM)
Average temperature yesterday: 45 °F

Past Weeks' High & Low Weather Summary

 TemperatureHumidityPressure
High71 °F (Oct 12, 4:00 PM)100% (Oct 10, 1:00 AM)30.32 "Hg (Oct 10, 1:00 AM)
Low40 °F (Oct 23, 2:00 AM)54% (Oct 14, 5:00 PM)29.61 "Hg (Oct 21, 11:00 PM)
Average55 °F89%29.96 "Hg
* Reported Oct 8 1:00 PM — Oct 23 1:00 PM, Amstetten, Weather by CustomWeather, © 2014

Note: Actual official high and low records may vary slightly from our data, if they occured in-between our weather recording intervals... More about our weather records

Advertising

Amstetten weather history for previous 24 hours

 ConditionsComfort  
Time TempWeatherWind HumidityBarometerVisibility
1:00 PM
Oct 23
50 °FOvercast.6 mph88%29.99 "Hg19 mi
12:00 PM50 °FOvercast.6 mph89%29.99 "Hg28 mi
11:00 AM51 °FLow clouds.6 mph88%29.96 "Hg28 mi
10:00 AM49 °FLight rain. Low clouds.6 mph90%29.93 "Hg14 mi
9:00 AM49 °FHeavy rain. Low clouds.7 mph90%29.89 "Hg14 mi
8:00 AM48 °FLight rain. Low clouds.8 mph90%29.86 "Hg28 mi
7:00 AMN/APassing clouds.12 mphN/AN/A4 mi
6:00 AM46 °FHeavy rain. Low clouds.5 mph95%29.84 "Hg6 mi
5:00 AM45 °FHeavy rain. Low clouds.6 mph97%29.83 "Hg6 mi
4:00 AM41 °FLight rain. Low clouds.6 mph94%29.85 "Hg11 mi
3:00 AM40 °FLight rain. Low clouds.5 mph93%29.86 "Hg9 mi
2:00 AM40 °FLight rain. Low clouds.6 mph93%29.86 "Hg18 mi
1:00 AM41 °FRain showers. Overcast.7 mph92%29.87 "Hg3 mi
12:00 AM42 °FDrizzle. Overcast.9 mph89%29.87 "Hg9 mi
11:00 PM
Oct 22
41 °FRain showers. Overcast.10 mph88%29.88 "Hg6 mi
10:00 PM42 °FRain showers. Overcast.13 mph86%29.89 "Hg7 mi
9:00 PM42 °FRain showers. Overcast.12 mph85%29.89 "Hg9 mi
8:00 PM43 °FRain showers. Overcast.12 mph86%29.88 "Hg9 mi
7:00 PM43 °FRain showers. Overcast.13 mph82%29.88 "Hg16 mi
6:00 PM43 °FOvercast.12 mph83%29.89 "Hg19 mi
5:00 PM44 °FLight rain. Overcast.15 mph84%29.89 "Hg8 mi
4:00 PM45 °FLight rain. Overcast.13 mph77%29.88 "Hg19 mi
3:00 PM44 °FRain showers. Overcast.12 mph85%29.88 "Hg3 mi
2:00 PM43 °FLight rain. Overcast.10 mph87%29.89 "Hg8 mi
Weather by CustomWeather, © 2014

See weather overviewHow to use our weather pages